Погода в Магнитогорске

Погода в Магнитогорске : погода сейчас, прогноз погоды и архив. Всё, что Вы хотите узнать о погоде в Магнитогорске!

Хотите узнать прогноз погоды в Магнитогорске? Тогда Вам сюда: Погода в Магнитогорске

Поиск расширенной информации на нашем сайте:

Другие новости

Новости СМИ2

Главная страница сайта

Новости сайта

02.10.2013

Напоминаем, что на нашем новом сайте вы можете получить высокодетализированные прогнозы погоды по пунктам России, СНГ и мира (включающие важные для авиации метеовеличины, такие как направление и скорость ветра, видимость, явления погоды, количество и форма облачности, нижняя и верхняя граница облачности), а также ознакомиться с разнообразными материалами по авиационной метеорологии и подборкой полезных ссылок на эту тему.

Сайт Метеоцентр.Азия посвящён разработке технологий оптимизации авиаметеорологического обслуживания, включая проектирование и перспективное создание нескольких автоматизированных авиаметеорологических систем:
- система выпуска высокодетальных прогностических карт явлений погоды для нижнего воздушного пространства по России и ближнему зарубежью;
- система верификации прогнозов TAF (выпускаемых синоптиками официальных АМСГ РФ и ближнего зарубежья) и AUTOTAF (выпускаемых сайтом Метеоцентр.Азия) - выявление ошибок, онлайн-сопоставление с фактической погодой METAR, автоматическое внесение коррективов в прогнозы при резком отклонении фактической погоды от прогноза, подсчёт оправдываемости прогнозов по элементам и в целом;
- система обработки, анализа и отображения авиаметеорологической информации для применения провайдерами метеорологической информации.

Рекомендуем: Строительные компании проектно Строительные.

Погода в Магнитогорске - сегодня

Время (UTC), дата Ветер
(°,м/с) 
Видим.   Явления Облачность Т
(°С)
Тd
(°С)
f(%) Тe
(°С)
Pmin
(гПа)
dP
(гПа)
Po
(мм)
O2
(г/м3)
Тmin Tmax R s Состояние
почвы
18 24.06.17 тихо ()   10 км    3/3 600 м 
[Sc]
+13.1 +7.7 70 +13  1007.3  0.1  722  276           
21 24.06.17 100 (В) 10 км    ясно 
+9.4 +6 79 +10  1006.3  -1.6  721  280           
00 25.06.17 170 (Ю) 20000 м    8/8 600 м кучево-дожд. 
[Cb cap]
+14.9 +6.3 56 +14  1003.1  -2.2  719  274           
03 25.06.17 180 (Ю) 4000 м  ливневой дождь  10/10 600 м кучево-дожд. 
[Cb cap]
+13.6 +9.2 75 +14  1001.7  -1.5  718  274  +9.3    0.5    влажная 
06 25.06.17 190 (Ю) 6-10{14}  20000 м  {ливн. осадки}  10/10 600 м кучево-дожд. 
[Cb cap]
+16.1 +12.5 79 +22  999.6  -1.5  717  270           
09 25.06.17 230 (ЮЗ) 6-12{15}  20000 м    8/8 600 м кучево-дожд. 
[Cb cap]
+20.6 +7.7 43 +21  998.7  -0.2  717  267           
12 25.06.17 270 (З) 8-14{17}  20000 м    6/0 средняя, верхняя 
[Ac trans|Ci fib]
+17.3 +5.9 47 +17  1001.9  2.5  719  271           
15 25.06.17 270 (З) 7-12{14}  20000 м    4/4 600 м кучево-дожд. 
[Cb cap]
+15.6 +5.3 50 +15  1004.5  2.2  720  274    +21.1     
18 25.06.17 250 (З) 4{12}  10 км    ясно 
+12.9 +5.9 62 +12  1006.6  1.6  721  277           
21 25.06.17 220 (ЮЗ) 10 км    ясно 
+9.9 +6.7 80 +10  1008.3  1.2  722  280           
00 26.06.17 240 (ЮЗ) 20000 м    3/3 600 м 
[Sc]
+9.2 +7.1 87 +9  1009.6  1.1  723  281           
03 26.06.17 250 (З) 20000 м    ясно 
+14.1 +8.2 68 +14  1009.8  724  276  +8.6        сухая 
06 26.06.17 260 (З) 20000 м    4/4 600 м 
[Sc]
+17.5 +5.2 44 +18  1009.6  0.3  724  273           
09 26.06.17 270 (З) 5{10}  20000 м    3/3 600 м 
[Sc]
+20 +4.2 35 +20  1009.5  0.2  724  271           
12 26.06.17 280 (З) 4-10{11}  20000 м    3/3 600 м 
[Sc]
+21.3 +4 32 +21  1009.6  0.3  724  270           
15 26.06.17 280 (З) 4{10}  20000 м    ясно 
+19.7 +3.6 34 +20  1010.7  0.8  725  272    +21.6       
18 26.06.17 270 (З) 10 км    ясно 
+15.8 +6.1 52 +16  1012.9  0.8  726  276           
21 26.06.17 190 (Ю) 10 км    ясно 
+9.8 +6.4 79 +11  1014.5  0.6  727  282           
00 27.06.17 210 (ЮЗ) 20000 м    ясно 
+9.2 +6.9 86 +10  1015.2  0.6  727  282           
03 27.06.17 190 (Ю) 20000 м    ясно 
+16.9 +10.6 66 +21  1014.3  0.3  727  274  +8.7        сухая 
06 27.06.17 240 (ЮЗ) 6-10{11}  20000 м    3/0 верхняя 
[Ci fib]
+22.7 +10.3 45 +25  1012.8  -0.6  727  269           
09 27.06.17 230 (ЮЗ) 6-11{12}  20000 м    4/0 средняя 
[Ac trans]
+25.2 +10.1 39 +27  1011.8  -0.5  727  266           
12 27.06.17 240 (ЮЗ) 6{12}  20000 м    6/6 600 м 
[Sc]
+25.2 +10.4 39 +28  1011  -0.8  726  266           
15 27.06.17 210 (ЮЗ) 2{12}  20000 м    6/6 600 м 
[Sc]
+23.1 +12.4 51 +28  1010.3  -0.8  725  267    +25.8       
18 27.06.17 230 (ЮЗ) 10 км    6/6 600 м 
[Sc]
+20.5 +12.5 60 +26  1010.6  725  269           
Время (UTC), дата Ветер
(°,м/с) 
Видим.   Явления Облачность Т
(°С)
Тd
(°С)
f(%) Тe
(°С)
Pmin
(гПа)
dP
(гПа)
Po
(мм)
O2
(г/м3)
Тmin Tmax R s Состояние
почвы

Для получения пояснительной информации подведите курсор к названию столбца.

ПОГОДА в Магнитогорске - архив

Всё, что Вы хотите узнать о погоде в Магнитогорске - удобно и подробно!

Выберите нужную дату (начиная с 1 января 2015* года) и нажмите кнопку "Найти".
Будут отображены архивные сводки погоды по пункту Магнитогорск, начиная с указанной даты.


Отображать данные в формате CSV (для использования в таблицах Excel)


Внимание! Наш архив погоды предназначен исключительно для личного некоммерческого использования в познавательных целях. Если Вам необходимы официальные справки о состоянии погоды (для производственных, юридических, коммерческих и т.п. целей), обращайтесь в органы Росгидромета.

*Примечание: данная дата относится к архиву по метеостанциям СССР (Россия, СНГ, Балтия).
Архив по метеостанциям Зарубежной Европы и Азии (кроме Китая) хранится 10 дней, по другим регионам земного шара (Китай, Африка, Америка, Австралия, Океания) - 1 день.

Магнитогорск - район местоположения метеостанции


Название, широта, долгота, высота метеостанции:
Магнитогорск 53.3°ш. 59.1°д. 384 м над ур. моря [Российская Федерация]

Дополнительная информация

В oтличие oт бoльшинства пoгoдных сайтoв мы публикуем пoдрoбную метеoинфoрмацию в детальнoм прoфессиoнальнoм фoрмате.

Характеристики температуры и влажнoсти вoздуха измеряются на высoте 2 м в тени вдали oт зданий и деревьев.
Скoрoсть ветра измеряется на высoте 10 м (на урoвне рoста челoвека скoрoсть ветра ниже в 1.5-2 раза). Если метеoстанция нахoдится в гoрoде или в лесу, тo скoрoсть ветра занижена на 2-4 м/с пo сравнению с oткрытым местoм. Скoрoсть ветра над акватoриями крупных рек и oзёр, а также на вершинах хoлмoв на 2-5 м/с выше, чем в oбычных услoвиях.
Атмoсфернoе давление в разных тoчках местнoсти мoжет значительнo oтличаться oт давления на метеoстанции, в зависимoсти oт услoвий рельефа (при пoдъёме на 10 м давление пoнижается примернo на 1 мм рт.ст.).